Volver al catálogo

STARLINK-32011

ActivoComunicacionesVLEO
NORAD 60030·PAYLOAD·🇺🇸 United States

Lanzado Jun 8, 2024 desde Cape Canaveral Space Force Station

Loading…

Próximos Pases (próximas 24 horas)

TLE

ActualizadoSource: CelesTrak SupGP

Época: Sep 15, 2026, 01:53 UTC

1 60030C 24111Q   26258.07895833  .00007124  00000+0  21044-3 0  2589
2 60030  53.1574 271.3852 0001375  86.3451 287.4065 15.34393672    13

Sigue STARLINK-32011 en tiempo real con AllMySat

Download on the App Store